Dungannon, United Kingdom
Current Conditions -  °F | °C
As of 6:20 PM on Tuesday 21 Oct 2014 (Local Time) from EGAA Reporting Station
Few Clouds Few Clouds  
Wind Chill: 38°   Ceiling: Unl
Heat Index: 45°   Visibility: 6mi
Dew Point: 37°   Wind: 13mph
Humidity: 76%   Direction: 290°WNW
Pressure: 30"   Gusts: NA
Location:  54.5°N, 6.77°W
Report Text: EGAA 211720Z 29011KT 9999 FEW021 07/03 Q1016
Loading
Personal Weather Stations






























Interactive Weather Map
Tropical Storm Tracking
New forecast layout! Learn more

10-Day Weather Forecast

Advertisements
Track Severe Weather on mobile